RYS7171 EPLL-LTAI

Flight info

Callsign RYS7171
Flight time 2h 33m
Altitude 35000
Route VIDEV N133 LENOV DCT KEKED DCT DVA DCT TIMUR L606 ADORU UG80 EKI UL606 CRD UL854 KOZLU
Aircraft B738/M-SDE2E3FGHIRWXY/LB1

Departure

Time 2026-04-26 08:41
Airport Łódź Władysław Reymont Airport (EPLL)

Arrival

Time 2026-04-26 11:15
Airport Antalya International Airport (LTAI)
Time Latitude Longitude Altitude Speed Heading
2026-04-26 08:26 51.72632 19.40201 614 ft 0 kts 340°
2026-04-26 08:36 51.72631 19.40202 614 ft 2 kts 340°
2026-04-26 08:36 51.72616 19.40210 627 ft 2 kts 343°
2026-04-26 08:36 51.72599 19.40217 626 ft 2 kts 353°
2026-04-26 08:37 51.72583 19.40215 625 ft 2 kts 39°
2026-04-26 08:37 51.72575 19.40197 629 ft 1 kts 70°
2026-04-26 08:37 51.72574 19.40194 629 ft 0 kts 70°
2026-04-26 08:38 51.72575 19.40199 628 ft 2 kts 70°
2026-04-26 08:38 51.72584 19.40256 614 ft 9 kts 80°
2026-04-26 08:39 51.72585 19.40383 617 ft 14 kts 113°
2026-04-26 08:39 51.72515 19.40512 614 ft 14 kts 142°
2026-04-26 08:39 51.72465 19.40547 629 ft 1 kts 160°
2026-04-26 08:39 51.72429 19.40574 616 ft 10 kts 157°
2026-04-26 08:40 51.72352 19.40564 617 ft 12 kts 232°
2026-04-26 08:40 51.72345 19.40534 615 ft 0 kts 250°
2026-04-26 08:40 51.72307 19.40358 616 ft 53 kts 251°
2026-04-26 08:40 51.72090 19.39367 591 ft 132 kts 250°
2026-04-26 08:41 51.71725 19.37694 874 ft 173 kts 255°
2026-04-26 08:41 51.71331 19.35765 1847 ft 185 kts 259°
2026-04-26 08:41 51.70934 19.33895 3009 ft 182 kts 257°
2026-04-26 08:41 51.70487 19.31927 3728 ft 192 kts 257°
2026-04-26 08:42 51.69957 19.29888 4285 ft 210 kts 243°
2026-04-26 08:42 51.68682 19.28299 4531 ft 254 kts 204°
2026-04-26 08:42 51.66823 19.28051 4964 ft 284 kts 172°
2026-04-26 08:42 51.64916 19.29026 5737 ft 292 kts 157°
2026-04-26 08:43 51.63065 19.30442 6595 ft 297 kts 154°
2026-04-26 08:43 51.61216 19.31977 7428 ft 301 kts 153°
2026-04-26 08:43 51.59348 19.33539 8232 ft 306 kts 153°
2026-04-26 08:43 51.57443 19.35112 9055 ft 310 kts 153°
2026-04-26 08:44 51.55502 19.36691 9869 ft 315 kts 154°
2026-04-26 08:44 51.53518 19.38284 10519 ft 325 kts 154°
2026-04-26 08:44 51.51414 19.39954 10726 ft 351 kts 154°
2026-04-26 08:44 51.49160 19.41728 11076 ft 368 kts 154°
2026-04-26 08:45 51.46823 19.43557 11641 ft 379 kts 154°
2026-04-26 08:45 51.44424 19.45428 12281 ft 387 kts 154°
2026-04-26 08:45 51.41979 19.47328 12921 ft 395 kts 154°
2026-04-26 08:45 51.39477 19.49268 13534 ft 404 kts 154°
2026-04-26 08:46 51.36923 19.51244 14122 ft 412 kts 154°
2026-04-26 08:46 51.34319 19.53255 14692 ft 418 kts 154°
2026-04-26 08:46 51.31681 19.55289 15286 ft 425 kts 155°
2026-04-26 08:46 51.28997 19.57356 15852 ft 431 kts 155°
2026-04-26 08:47 51.26277 19.59448 16413 ft 438 kts 155°
2026-04-26 08:47 51.23505 19.61577 16975 ft 445 kts 155°
2026-04-26 08:47 51.20696 19.63731 17541 ft 451 kts 155°
2026-04-26 08:47 51.17844 19.65915 18099 ft 458 kts 155°
2026-04-26 08:48 51.14955 19.68125 18627 ft 464 kts 155°
2026-04-26 08:48 51.12033 19.70356 19159 ft 468 kts 155°
2026-04-26 08:48 51.09088 19.72603 19736 ft 470 kts 155°
2026-04-26 08:48 51.06129 19.74857 20280 ft 474 kts 156°
2026-04-26 08:49 51.03140 19.77131 20800 ft 478 kts 156°
2026-04-26 08:49 51.00129 19.79417 21310 ft 482 kts 156°
2026-04-26 08:49 50.97093 19.81719 21830 ft 486 kts 156°
2026-04-26 08:49 50.94031 19.84038 22332 ft 489 kts 156°
2026-04-26 08:50 50.90949 19.86369 22840 ft 493 kts 156°
2026-04-26 08:50 50.87841 19.88715 23336 ft 497 kts 156°
2026-04-26 08:50 50.84709 19.91076 23808 ft 500 kts 156°
2026-04-26 08:50 50.81553 19.93452 24222 ft 503 kts 157°
2026-04-26 08:51 50.75212 19.98216 25087 ft 507 kts 157°
2026-04-26 08:51 50.72018 20.00610 25498 ft 509 kts 157°
2026-04-26 08:51 50.68819 20.03004 25897 ft 511 kts 157°
2026-04-26 08:52 50.65546 20.05449 26298 ft 514 kts 157°
2026-04-26 08:52 50.62354 20.07830 26679 ft 516 kts 157°
2026-04-26 08:52 50.59119 20.10239 27067 ft 518 kts 157°
2026-04-26 08:52 50.55786 20.12718 27464 ft 520 kts 157°
2026-04-26 08:53 50.52508 20.15152 27829 ft 523 kts 157°
2026-04-26 08:53 50.49253 20.17565 28175 ft 525 kts 157°
2026-04-26 08:53 50.45899 20.20048 28554 ft 527 kts 157°
2026-04-26 08:53 50.42576 20.22504 28891 ft 529 kts 157°
2026-04-26 08:54 50.39238 20.24968 29237 ft 532 kts 157°
2026-04-26 08:54 50.35881 20.27440 29562 ft 534 kts 157°
2026-04-26 08:55 50.33317 20.29327 29821 ft 535 kts 157°
2026-04-26 08:55 50.29974 20.31784 30119 ft 537 kts 157°
2026-04-26 08:55 50.26583 20.34271 30395 ft 539 kts 157°
2026-04-26 08:55 50.23188 20.36758 30687 ft 540 kts 157°
2026-04-26 08:56 50.19796 20.39240 31121 ft 537 kts 158°
2026-04-26 08:56 50.17567 20.40869 31430 ft 534 kts 158°
2026-04-26 08:56 50.13079 20.44144 32021 ft 530 kts 158°
2026-04-26 08:56 50.09742 20.46573 32443 ft 527 kts 158°
2026-04-26 08:57 50.06426 20.48984 32851 ft 525 kts 158°
2026-04-26 08:57 50.03126 20.51378 33246 ft 522 kts 158°
2026-04-26 08:57 49.99837 20.53761 33616 ft 521 kts 158°
2026-04-26 08:57 49.96560 20.56131 33990 ft 519 kts 158°
2026-04-26 08:58 49.93296 20.58489 34306 ft 517 kts 158°
2026-04-26 08:58 49.90044 20.60834 34705 ft 512 kts 158°
2026-04-26 08:58 49.86822 20.63155 35072 ft 509 kts 158°
2026-04-26 08:59 49.80315 20.67828 35067 ft 512 kts 158°
2026-04-26 08:59 49.74968 20.71661 35050 ft 506 kts 158°
2026-04-26 09:00 49.67574 20.76946 35056 ft 503 kts 159°
2026-04-26 09:00 49.61220 20.81471 35067 ft 502 kts 159°
2026-04-26 09:01 49.54872 20.85979 35065 ft 502 kts 159°
2026-04-26 09:01 49.49560 20.89742 35061 ft 502 kts 159°
2026-04-26 09:02 49.43212 20.94229 35061 ft 502 kts 159°
2026-04-26 09:02 49.36870 20.98700 35061 ft 501 kts 159°
2026-04-26 09:03 49.30382 21.02355 35057 ft 492 kts 172°
2026-04-26 09:03 49.23705 21.04616 35047 ft 491 kts 173°
2026-04-26 09:04 49.17026 21.06830 35051 ft 491 kts 173°
2026-04-26 09:04 49.10366 21.09112 35048 ft 491 kts 173°
2026-04-26 09:05 49.03713 21.11426 35058 ft 490 kts 173°
2026-04-26 09:05 48.97065 21.13738 35058 ft 490 kts 173°
2026-04-26 09:06 48.90426 21.16035 35055 ft 489 kts 173°
2026-04-26 09:06 48.83792 21.18322 35060 ft 489 kts 173°
2026-04-26 09:07 48.77121 21.20617 35067 ft 488 kts 173°
2026-04-26 09:07 48.70495 21.22889 35066 ft 488 kts 173°
2026-04-26 09:08 48.63877 21.25153 35073 ft 487 kts 173°
2026-04-26 09:08 48.57263 21.27410 35075 ft 488 kts 173°
2026-04-26 09:09 48.50682 21.29996 35062 ft 494 kts 162°
2026-04-26 09:09 48.44347 21.34099 35058 ft 496 kts 160°
2026-04-26 09:10 48.38055 21.38359 35055 ft 496 kts 160°
2026-04-26 09:10 48.31750 21.42557 35042 ft 495 kts 160°
2026-04-26 09:11 48.25432 21.46689 35039 ft 495 kts 160°
2026-04-26 09:11 48.19111 21.50792 35046 ft 495 kts 160°
2026-04-26 09:12 48.12789 21.54884 35044 ft 495 kts 160°
2026-04-26 09:12 48.06461 21.58973 35046 ft 495 kts 160°
2026-04-26 09:13 48.00140 21.63048 35047 ft 494 kts 160°
2026-04-26 09:13 47.93827 21.67108 35048 ft 494 kts 160°
2026-04-26 09:14 47.87521 21.71152 35044 ft 493 kts 160°
2026-04-26 09:14 47.81220 21.75182 35040 ft 492 kts 160°
2026-04-26 09:15 47.74939 21.79188 35028 ft 491 kts 160°
2026-04-26 09:15 47.68664 21.83180 35016 ft 491 kts 160°
2026-04-26 09:16 47.62388 21.87162 35018 ft 490 kts 160°
2026-04-26 09:16 47.56119 21.91129 35016 ft 489 kts 160°
2026-04-26 09:17 47.49860 21.95080 35014 ft 489 kts 160°
2026-04-26 09:17 47.43556 21.99049 35008 ft 489 kts 160°
2026-04-26 09:18 47.37304 22.02974 35002 ft 488 kts 160°
2026-04-26 09:18 47.31048 22.06892 34993 ft 488 kts 160°
2026-04-26 09:19 47.24754 22.10824 34982 ft 488 kts 160°
2026-04-26 09:19 47.18503 22.14719 34998 ft 487 kts 160°
2026-04-26 09:20 47.12260 22.18599 34986 ft 487 kts 160°
2026-04-26 09:20 47.06027 22.22463 34984 ft 485 kts 160°
2026-04-26 09:21 46.99814 22.26305 34988 ft 484 kts 160°
2026-04-26 09:21 46.93587 22.30146 34979 ft 481 kts 160°
2026-04-26 09:22 46.87466 22.33912 34972 ft 479 kts 160°
2026-04-26 09:22 46.81296 22.37698 34963 ft 476 kts 160°
2026-04-26 09:23 46.75205 22.41427 34965 ft 473 kts 160°
2026-04-26 09:23 46.69149 22.45125 34967 ft 471 kts 160°
2026-04-26 09:24 46.63123 22.48795 34968 ft 468 kts 160°
2026-04-26 09:24 46.57126 22.52440 34965 ft 466 kts 160°
2026-04-26 09:25 46.51162 22.56055 34962 ft 464 kts 160°
2026-04-26 09:25 46.45206 22.59658 34962 ft 463 kts 160°
2026-04-26 09:26 46.39264 22.63242 34958 ft 462 kts 160°
2026-04-26 09:26 46.33320 22.66820 34954 ft 463 kts 160°
2026-04-26 09:27 46.27337 22.70412 34968 ft 463 kts 159°
2026-04-26 09:27 46.21385 22.73978 34966 ft 464 kts 159°
2026-04-26 09:28 46.15419 22.77545 34968 ft 464 kts 159°
2026-04-26 09:28 46.09441 22.81110 34968 ft 465 kts 159°
2026-04-26 09:29 46.03451 22.84673 34970 ft 466 kts 159°
2026-04-26 09:29 45.97454 22.88234 34974 ft 466 kts 159°
2026-04-26 09:30 45.92467 22.91188 34969 ft 467 kts 159°
2026-04-26 09:30 45.85447 22.95338 34972 ft 467 kts 159°
2026-04-26 09:31 45.79451 22.98914 34967 ft 466 kts 158°
2026-04-26 09:31 45.73494 23.02595 34976 ft 466 kts 158°
2026-04-26 09:32 45.68516 23.05682 34976 ft 465 kts 158°
2026-04-26 09:32 45.62572 23.09348 34974 ft 465 kts 158°
2026-04-26 09:33 45.56629 23.12994 34978 ft 464 kts 158°
2026-04-26 09:33 45.50694 23.16621 34968 ft 464 kts 158°
2026-04-26 09:34 45.44767 23.20236 34972 ft 463 kts 158°
2026-04-26 09:34 45.38879 23.23818 34963 ft 464 kts 158°
2026-04-26 09:35 45.32904 23.27446 34965 ft 464 kts 158°
2026-04-26 09:35 45.26954 23.31050 34958 ft 466 kts 158°
2026-04-26 09:36 45.20985 23.34658 34965 ft 467 kts 158°
2026-04-26 09:36 45.15002 23.38265 34962 ft 467 kts 158°
2026-04-26 09:37 45.09016 23.41866 34948 ft 467 kts 158°
2026-04-26 09:37 45.03043 23.45452 34943 ft 465 kts 158°
2026-04-26 09:38 44.97095 23.49015 34942 ft 463 kts 158°
2026-04-26 09:38 44.91181 23.52549 34949 ft 460 kts 158°
2026-04-26 09:39 44.85297 23.56057 34939 ft 458 kts 158°
2026-04-26 09:39 44.79437 23.59542 34951 ft 456 kts 158°
2026-04-26 09:40 44.73599 23.63008 34941 ft 455 kts 158°
2026-04-26 09:40 44.67779 23.66455 34945 ft 454 kts 158°
2026-04-26 09:41 44.61962 23.69892 34957 ft 453 kts 158°
2026-04-26 09:41 44.56141 23.73325 34954 ft 454 kts 158°
2026-04-26 09:42 44.50271 23.76779 34948 ft 455 kts 158°
2026-04-26 09:42 44.44429 23.80209 34941 ft 456 kts 158°
2026-04-26 09:43 44.38574 23.83639 34943 ft 457 kts 158°
2026-04-26 09:43 44.32702 23.87071 34942 ft 458 kts 158°
2026-04-26 09:44 44.26826 23.90499 34939 ft 459 kts 159°
2026-04-26 09:44 44.20931 23.93930 34941 ft 459 kts 159°
2026-04-26 09:45 44.15030 23.97358 34951 ft 459 kts 159°
2026-04-26 09:45 44.09085 24.00803 34959 ft 460 kts 159°
2026-04-26 09:46 44.03183 24.04216 34970 ft 459 kts 160°
2026-04-26 09:46 43.97285 24.07620 34972 ft 459 kts 160°
2026-04-26 09:47 43.91397 24.11010 34973 ft 458 kts 160°
2026-04-26 09:47 43.85526 24.14384 34978 ft 456 kts 160°
2026-04-26 09:48 43.79624 24.17768 34978 ft 455 kts 161°
2026-04-26 09:48 43.73772 24.21117 34982 ft 455 kts 161°
2026-04-26 09:49 43.68142 24.25102 34986 ft 459 kts 147°
2026-04-26 09:49 43.63360 24.31022 34992 ft 463 kts 138°
2026-04-26 09:50 43.58813 24.37229 34984 ft 463 kts 138°
2026-04-26 09:50 43.54208 24.43442 34988 ft 463 kts 139°
2026-04-26 09:51 43.49536 24.49655 34986 ft 464 kts 139°
2026-04-26 09:51 43.44879 24.55809 34992 ft 465 kts 139°
2026-04-26 09:52 43.40204 24.61974 34992 ft 466 kts 139°
2026-04-26 09:52 43.33169 24.71231 34992 ft 468 kts 139°
2026-04-26 09:53 43.28464 24.77406 34991 ft 469 kts 139°
2026-04-26 09:53 43.23742 24.83590 34992 ft 469 kts 139°
2026-04-26 09:54 43.19017 24.89764 34999 ft 470 kts 139°
2026-04-26 09:54 43.14283 24.95937 34990 ft 470 kts 139°
2026-04-26 09:55 43.09552 25.02093 34987 ft 469 kts 139°
2026-04-26 09:55 43.04825 25.08236 34990 ft 468 kts 139°
2026-04-26 09:56 43.00108 25.14356 34992 ft 467 kts 139°
2026-04-26 09:56 42.95397 25.20455 34998 ft 466 kts 139°
2026-04-26 09:57 42.90687 25.26538 34983 ft 466 kts 139°
2026-04-26 09:57 42.85982 25.32602 34983 ft 465 kts 139°
2026-04-26 09:58 42.81280 25.38650 34975 ft 465 kts 139°
2026-04-26 09:58 42.76576 25.44685 34979 ft 464 kts 139°
2026-04-26 09:59 42.72674 25.49683 34973 ft 463 kts 139°
2026-04-26 09:59 42.67218 25.56655 34980 ft 463 kts 139°
2026-04-26 10:00 42.62502 25.62667 34971 ft 462 kts 139°
2026-04-26 10:00 42.57818 25.68626 34982 ft 462 kts 139°
2026-04-26 10:01 42.53125 25.74582 34976 ft 462 kts 139°
2026-04-26 10:01 42.48426 25.80535 34980 ft 462 kts 139°
2026-04-26 10:02 42.43724 25.86478 34983 ft 463 kts 139°
2026-04-26 10:02 42.39008 25.92424 34969 ft 464 kts 139°
2026-04-26 10:03 42.34286 25.98370 34987 ft 465 kts 139°
2026-04-26 10:03 42.29561 26.04306 34994 ft 466 kts 139°
2026-04-26 10:04 42.24792 26.10282 34989 ft 467 kts 139°
2026-04-26 10:04 42.20025 26.16224 34994 ft 467 kts 139°
2026-04-26 10:05 42.15252 26.22155 34994 ft 466 kts 139°
2026-04-26 10:05 42.10491 26.28063 34991 ft 464 kts 139°
2026-04-26 10:06 42.06547 26.32949 34994 ft 463 kts 139°
2026-04-26 10:06 42.01814 26.38802 34995 ft 461 kts 139°
2026-04-26 10:07 41.97105 26.44613 34999 ft 459 kts 139°
2026-04-26 10:07 41.92393 26.50417 34994 ft 458 kts 138°
2026-04-26 10:08 41.87698 26.56182 35003 ft 457 kts 139°
2026-04-26 10:08 41.82653 26.61331 35007 ft 455 kts 146°
2026-04-26 10:09 41.77430 26.66138 34999 ft 456 kts 147°
2026-04-26 10:09 41.72215 26.70977 35006 ft 456 kts 146°
2026-04-26 10:10 41.67019 26.75860 35008 ft 457 kts 146°
2026-04-26 10:10 41.61826 26.80751 35007 ft 457 kts 146°
2026-04-26 10:11 41.56622 26.85640 35007 ft 457 kts 146°
2026-04-26 10:11 41.51446 26.90491 35009 ft 458 kts 145°
2026-04-26 10:12 41.46233 26.95367 35012 ft 457 kts 145°
2026-04-26 10:12 41.41021 27.00223 35008 ft 457 kts 145°
2026-04-26 10:13 41.35805 27.05070 35005 ft 457 kts 145°
2026-04-26 10:13 41.30588 27.09913 35008 ft 456 kts 145°
2026-04-26 10:14 41.25388 27.14732 35010 ft 455 kts 145°
2026-04-26 10:14 41.20193 27.19536 35003 ft 455 kts 145°
2026-04-26 10:15 41.15005 27.24319 35011 ft 453 kts 145°
2026-04-26 10:15 41.09828 27.29084 35012 ft 452 kts 145°
2026-04-26 10:16 41.04667 27.33827 35018 ft 451 kts 145°
2026-04-26 10:16 40.99512 27.38558 35021 ft 450 kts 145°
2026-04-26 10:17 40.94340 27.43239 35010 ft 450 kts 148°
2026-04-26 10:17 40.88950 27.47429 35028 ft 449 kts 150°
2026-04-26 10:18 40.83500 27.51471 35019 ft 449 kts 150°
2026-04-26 10:18 40.78072 27.55525 35024 ft 448 kts 150°
2026-04-26 10:19 40.72624 27.59629 35029 ft 448 kts 149°
2026-04-26 10:19 40.67254 27.63683 35028 ft 448 kts 149°
2026-04-26 10:20 40.62723 27.67099 35033 ft 448 kts 149°
2026-04-26 10:20 40.56434 27.71829 35028 ft 448 kts 149°
2026-04-26 10:21 40.51020 27.75891 35033 ft 448 kts 149°
2026-04-26 10:21 40.45606 27.79946 35036 ft 448 kts 149°
2026-04-26 10:22 40.40186 27.83998 35021 ft 448 kts 149°
2026-04-26 10:22 40.34776 27.88034 35033 ft 447 kts 149°
2026-04-26 10:23 40.29367 27.92063 35031 ft 447 kts 149°
2026-04-26 10:23 40.23962 27.96081 35026 ft 446 kts 149°
2026-04-26 10:24 40.18568 28.00084 35031 ft 446 kts 149°
2026-04-26 10:24 40.13177 28.04076 35023 ft 445 kts 149°
2026-04-26 10:25 40.07792 28.08058 35019 ft 445 kts 149°
2026-04-26 10:25 40.02409 28.12032 35027 ft 444 kts 149°
2026-04-26 10:26 39.97032 28.15994 35030 ft 444 kts 149°
2026-04-26 10:26 39.91655 28.19944 35024 ft 444 kts 149°
2026-04-26 10:27 39.86268 28.23872 35017 ft 444 kts 149°
2026-04-26 10:27 39.80883 28.27790 35019 ft 443 kts 149°
2026-04-26 10:28 39.75541 28.31674 35016 ft 443 kts 149°
2026-04-26 10:28 39.70162 28.35578 35017 ft 442 kts 149°
2026-04-26 10:29 39.64790 28.39471 35012 ft 442 kts 149°
2026-04-26 10:29 39.59428 28.43350 35011 ft 441 kts 149°
2026-04-26 10:30 39.54095 28.47202 35010 ft 439 kts 149°
2026-04-26 10:30 39.48746 28.51058 35016 ft 438 kts 149°
2026-04-26 10:31 39.43387 28.54913 35013 ft 437 kts 149°
2026-04-26 10:31 39.38069 28.58733 35015 ft 437 kts 149°
2026-04-26 10:32 39.32754 28.62545 35020 ft 437 kts 149°
2026-04-26 10:32 39.27445 28.66346 35014 ft 436 kts 149°
2026-04-26 10:33 39.22134 28.70141 35016 ft 436 kts 149°
2026-04-26 10:33 39.16830 28.73926 35015 ft 436 kts 149°
2026-04-26 10:34 39.11524 28.77706 35013 ft 436 kts 149°
2026-04-26 10:34 39.06211 28.81484 35010 ft 436 kts 150°
2026-04-26 10:35 39.00899 28.85264 35010 ft 436 kts 150°
2026-04-26 10:35 38.95586 28.89041 35010 ft 436 kts 150°
2026-04-26 10:36 38.90272 28.92813 35004 ft 437 kts 150°
2026-04-26 10:36 38.84954 28.96581 35010 ft 437 kts 150°
2026-04-26 10:37 38.79633 29.00343 35007 ft 437 kts 150°
2026-04-26 10:37 38.74305 29.04106 35006 ft 437 kts 151°
2026-04-26 10:38 38.68969 29.07868 35008 ft 438 kts 151°
2026-04-26 10:38 38.63629 29.11626 35007 ft 438 kts 151°
2026-04-26 10:39 38.58285 29.15380 35008 ft 438 kts 151°
2026-04-26 10:39 38.52935 29.19134 35001 ft 439 kts 152°
2026-04-26 10:40 38.47593 29.22878 35003 ft 438 kts 152°
2026-04-26 10:40 38.42263 29.26607 35003 ft 436 kts 152°
2026-04-26 10:41 38.36950 29.30318 35001 ft 435 kts 152°
2026-04-26 10:41 38.31652 29.34012 34999 ft 433 kts 152°
2026-04-26 10:42 38.27263 29.37069 35000 ft 432 kts 152°
2026-04-26 10:42 38.23763 29.39503 34732 ft 425 kts 152°
2026-04-26 10:42 38.21195 29.41287 34491 ft 416 kts 152°
2026-04-26 10:43 38.18674 29.43038 34248 ft 410 kts 152°
2026-04-26 10:43 38.16147 29.44791 34012 ft 406 kts 152°
2026-04-26 10:43 38.13671 29.46507 33739 ft 404 kts 152°
2026-04-26 10:43 38.11240 29.48190 33475 ft 402 kts 152°
2026-04-26 10:44 38.08762 29.49904 33199 ft 400 kts 152°
2026-04-26 10:44 38.06327 29.51587 32934 ft 398 kts 152°
2026-04-26 10:44 38.04720 29.52699 32767 ft 396 kts 151°
2026-04-26 10:44 38.02467 29.54660 32433 ft 392 kts 139°
2026-04-26 10:45 38.00579 29.57155 32009 ft 392 kts 128°
2026-04-26 10:45 37.98969 29.59936 31585 ft 391 kts 127°
2026-04-26 10:45 37.97396 29.62725 31210 ft 388 kts 126°
2026-04-26 10:45 37.95834 29.65504 30855 ft 385 kts 126°
2026-04-26 10:46 37.94283 29.68252 30520 ft 382 kts 126°
2026-04-26 10:46 37.92738 29.70973 30185 ft 379 kts 126°
2026-04-26 10:46 37.91197 29.73671 29794 ft 376 kts 127°
2026-04-26 10:46 37.89671 29.76336 29377 ft 374 kts 127°
2026-04-26 10:47 37.88144 29.78993 28926 ft 372 kts 127°
2026-04-26 10:47 37.86624 29.81632 28496 ft 370 kts 127°
2026-04-26 10:47 37.85110 29.84259 28087 ft 368 kts 127°
2026-04-26 10:47 37.83605 29.86868 27687 ft 366 kts 127°
2026-04-26 10:48 37.82086 29.89498 27289 ft 364 kts 127°
2026-04-26 10:48 37.80598 29.92073 26904 ft 361 kts 127°
2026-04-26 10:48 37.79120 29.94629 26515 ft 359 kts 127°
2026-04-26 10:48 37.77646 29.97174 26142 ft 358 kts 127°
2026-04-26 10:49 37.76182 29.99701 25775 ft 356 kts 127°
2026-04-26 10:49 37.74723 30.02217 25419 ft 354 kts 128°
2026-04-26 10:49 37.73273 30.04716 25092 ft 352 kts 128°
2026-04-26 10:49 37.71834 30.07195 24765 ft 349 kts 128°
2026-04-26 10:50 37.70402 30.09659 24419 ft 347 kts 128°
2026-04-26 10:50 37.69453 30.11292 24183 ft 346 kts 128°
2026-04-26 10:50 37.67574 30.14522 23745 ft 344 kts 128°
2026-04-26 10:50 37.66142 30.16980 23367 ft 342 kts 128°
2026-04-26 10:51 37.64737 30.19391 22967 ft 340 kts 128°
2026-04-26 10:51 37.61948 30.24171 22221 ft 336 kts 128°
2026-04-26 10:51 37.60566 30.26538 21859 ft 334 kts 128°
2026-04-26 10:52 37.59193 30.28887 21490 ft 332 kts 128°
2026-04-26 10:52 37.57826 30.31224 21118 ft 331 kts 128°
2026-04-26 10:52 37.56465 30.33550 20796 ft 329 kts 128°
2026-04-26 10:52 37.55112 30.35861 20466 ft 326 kts 128°
2026-04-26 10:53 37.53766 30.38160 20108 ft 325 kts 129°
2026-04-26 10:53 37.52424 30.40444 19771 ft 324 kts 128°
2026-04-26 10:53 37.51087 30.42722 19441 ft 322 kts 128°
2026-04-26 10:54 37.48439 30.47229 18802 ft 319 kts 128°
2026-04-26 10:54 37.47122 30.49469 18485 ft 317 kts 128°
2026-04-26 10:54 37.45814 30.51693 18168 ft 315 kts 129°
2026-04-26 10:54 37.44517 30.53896 17856 ft 312 kts 128°
2026-04-26 10:55 37.43255 30.56106 17563 ft 309 kts 121°
2026-04-26 10:55 37.42609 30.58669 17287 ft 309 kts 100°
2026-04-26 10:55 37.42395 30.61356 16940 ft 309 kts 96°
2026-04-26 10:55 37.42245 30.64054 16561 ft 309 kts 96°
2026-04-26 10:56 37.42106 30.66752 16215 ft 309 kts 96°
2026-04-26 10:56 37.41969 30.69448 15899 ft 307 kts 96°
2026-04-26 10:56 37.41829 30.72123 15601 ft 306 kts 95°
2026-04-26 10:56 37.41412 30.74710 15234 ft 302 kts 118°
2026-04-26 10:57 37.40078 30.76679 14907 ft 297 kts 147°
2026-04-26 10:57 37.38300 30.77966 14629 ft 294 kts 154°
2026-04-26 10:57 37.36465 30.79107 14275 ft 295 kts 155°
2026-04-26 10:57 37.34619 30.80224 13976 ft 293 kts 155°
2026-04-26 10:58 37.32791 30.81319 13531 ft 291 kts 155°
2026-04-26 10:58 37.30967 30.82406 13037 ft 289 kts 155°
2026-04-26 10:58 37.29087 30.83209 12576 ft 285 kts 176°
2026-04-26 10:58 37.27120 30.83103 12110 ft 282 kts 187°
2026-04-26 10:59 37.25174 30.82925 11676 ft 279 kts 182°
2026-04-26 10:59 37.23264 30.82889 11450 ft 268 kts 180°
2026-04-26 10:59 37.21418 30.82890 11196 ft 260 kts 180°
2026-04-26 10:59 37.19651 30.82896 11058 ft 249 kts 180°
2026-04-26 11:00 37.17939 30.82904 10789 ft 243 kts 180°
2026-04-26 11:00 37.16272 30.82898 10604 ft 238 kts 183°
2026-04-26 11:00 37.14626 30.82705 10419 ft 236 kts 186°
2026-04-26 11:00 37.12995 30.82458 10183 ft 237 kts 186°
2026-04-26 11:01 37.11360 30.82218 9942 ft 236 kts 186°
2026-04-26 11:01 37.09733 30.81983 9708 ft 235 kts 186°
2026-04-26 11:01 37.08111 30.81755 9474 ft 234 kts 186°
2026-04-26 11:01 37.06493 30.81529 9262 ft 233 kts 186°
2026-04-26 11:02 37.04906 30.81310 9045 ft 232 kts 185°
2026-04-26 11:02 37.03284 30.81088 8828 ft 232 kts 186°
2026-04-26 11:02 37.01685 30.80866 8653 ft 230 kts 185°
2026-04-26 11:02 37.00142 30.80394 8400 ft 231 kts 210°
2026-04-26 11:03 36.99119 30.78870 8156 ft 233 kts 252°
2026-04-26 11:03 36.99117 30.76910 8206 ft 229 kts 284°
2026-04-26 11:03 36.99562 30.75026 8221 ft 233 kts 284°
2026-04-26 11:03 37.00052 30.73025 8163 ft 239 kts 285°
2026-04-26 11:04 37.00543 30.71039 7969 ft 238 kts 285°
2026-04-26 11:04 37.01038 30.69052 7680 ft 240 kts 286°
2026-04-26 11:04 37.01926 30.67310 7365 ft 242 kts 323°
2026-04-26 11:04 37.03473 30.66597 7052 ft 241 kts
2026-04-26 11:05 37.05118 30.66933 6746 ft 239 kts 15°
2026-04-26 11:05 37.06740 30.67425 6417 ft 241 kts 15°
2026-04-26 11:05 37.08376 30.67925 6187 ft 243 kts 15°
2026-04-26 11:05 37.10027 30.68414 6030 ft 241 kts 17°
2026-04-26 11:06 37.11439 30.69414 5850 ft 231 kts 54°
2026-04-26 11:06 37.11964 30.70537 5733 ft 223 kts 72°
2026-04-26 11:06 37.12646 30.72978 5436 ft 220 kts 76°
2026-04-26 11:06 37.13105 30.74804 5103 ft 221 kts 76°
2026-04-26 11:07 37.13566 30.76599 4982 ft 210 kts 75°
2026-04-26 11:07 37.14019 30.78258 4900 ft 194 kts 75°
2026-04-26 11:07 37.14438 30.79816 4792 ft 184 kts 76°
2026-04-26 11:07 37.14840 30.81287 4614 ft 175 kts 76°
2026-04-26 11:08 37.15233 30.82728 4345 ft 176 kts 71°
2026-04-26 11:08 37.15826 30.84067 4027 ft 177 kts 59°
2026-04-26 11:08 37.16134 30.85496 3606 ft 174 kts 108°
2026-04-26 11:08 37.15433 30.86599 3520 ft 163 kts 154°
2026-04-26 11:09 37.14316 30.86718 3436 ft 166 kts 191°
2026-04-26 11:09 37.13298 30.86012 3299 ft 169 kts 215°
2026-04-26 11:09 37.12338 30.85245 3366 ft 164 kts 204°
2026-04-26 11:09 37.11332 30.84453 3394 ft 175 kts 211°
2026-04-26 11:10 37.10325 30.83593 3377 ft 177 kts 211°
2026-04-26 11:10 37.09313 30.82718 3414 ft 178 kts 213°
2026-04-26 11:10 37.08279 30.81858 3399 ft 177 kts 203°
2026-04-26 11:10 37.07061 30.81580 3154 ft 180 kts 180°
2026-04-26 11:11 37.05795 30.81443 2905 ft 184 kts 183°
2026-04-26 11:11 37.04512 30.81229 2661 ft 187 kts 185°
2026-04-26 11:11 37.03211 30.81061 2435 ft 187 kts 184°
2026-04-26 11:11 37.01912 30.80889 2192 ft 187 kts 185°
2026-04-26 11:12 37.00603 30.80717 1920 ft 189 kts 184°
2026-04-26 11:12 36.99316 30.80526 1700 ft 181 kts 183°
2026-04-26 11:12 36.98084 30.80384 1429 ft 172 kts 185°
2026-04-26 11:12 36.96961 30.80222 1234 ft 156 kts 183°
2026-04-26 11:13 36.95899 30.80082 1029 ft 154 kts 185°
2026-04-26 11:13 36.94851 30.79929 852 ft 151 kts 183°
2026-04-26 11:13 36.93817 30.79788 649 ft 145 kts 185°
2026-04-26 11:13 36.92821 30.79658 463 ft 144 kts 185°
2026-04-26 11:14 36.91830 30.79521 273 ft 142 kts 186°
2026-04-26 11:14 36.90883 30.79386 192 ft 127 kts 186°
2026-04-26 11:14 36.90118 30.79283 198 ft 90 kts 186°
2026-04-26 11:14 36.89839 30.79245 192 ft 50 kts 186°
2026-04-26 11:15 36.89579 30.79239 186 ft 13 kts 157°
2026-04-26 11:15 36.89513 30.79275 189 ft 5 kts 156°
2026-04-26 11:15 36.89483 30.79291 196 ft 5 kts 156°
2026-04-26 11:15 36.89449 30.79310 195 ft 7 kts 156°
2026-04-26 11:16 36.89428 30.79379 191 ft 13 kts 68°
2026-04-26 11:16 36.89532 30.79422 195 ft 20 kts
2026-04-26 11:16 36.89668 30.79440 191 ft 19 kts
2026-04-26 11:16 36.89800 30.79458 190 ft 19 kts
2026-04-26 11:17 36.89929 30.79476 194 ft 18 kts
2026-04-26 11:17 36.90058 30.79493 190 ft 19 kts
2026-04-26 11:17 36.90196 30.79514 197 ft 21 kts
2026-04-26 11:17 36.90336 30.79532 193 ft 20 kts
2026-04-26 11:18 36.90473 30.79550 194 ft 20 kts
2026-04-26 11:18 36.90613 30.79570 190 ft 21 kts
2026-04-26 11:18 36.90756 30.79589 191 ft 21 kts
2026-04-26 11:18 36.90896 30.79610 191 ft 20 kts
2026-04-26 11:19 36.91047 30.79632 202 ft 25 kts
2026-04-26 11:19 36.91218 30.79655 190 ft 27 kts
2026-04-26 11:19 36.91407 30.79679 190 ft 28 kts
2026-04-26 11:19 36.91589 30.79704 195 ft 26 kts
2026-04-26 11:20 36.91763 30.79728 190 ft 24 kts
2026-04-26 11:20 36.91835 30.79780 200 ft 19 kts 73°
2026-04-26 11:20 36.91836 30.79984 190 ft 18 kts 49°
2026-04-26 11:20 36.91926 30.79983 190 ft 13 kts 302°
2026-04-26 11:21 36.91926 30.79926 195 ft 9 kts 264°
2026-04-26 11:21 36.91928 30.79893 195 ft 0 kts 276°